Tracking 18850 objects as of 22-Nov-2017
HD Live streaming from Space Station
objects crossing your sky now

NAVSTAR 16 (USA 47)

Track NAVSTAR 16 (USA 47) now!
NAVSTAR 16 (USA 47) is classified as:


NORAD ID: 20302
Int'l Code: 1989-085A
Perigee: 21,201.7 km
Apogee: 21,239.4 km
Inclination: 55.1 °
Period: 760.2 minutes
Semi major axis: 27591 km
RCS: 1.9976 m2 (large)
Launch date: October 21, 1989
Source: United States (US)
Launch site: AIR FORCE EASTERN TEST RANGE (AFETR)
PRN:
aabbcc
Your satellite tracking list
Your tracking list is empty




NASA's NSSDC Master Catalog

Two Line Element Set (TLE):
1 20302U 89085A   17325.14146289 -.00000045  00000-0  00000+0 0  9999
2 20302  55.1252 295.1397 0006820  32.7817 136.0647  1.89425773199236
Source of the keplerian elements: AFSPC